Back to catalog

DELTA 1 DEB

AlivePO
NORAD 12227·DEBRIS·🇺🇸 United States

Launched Mar 5, 1978 from Vandenberg Space Force Base

Loading…

Next Passes (next 24 hours)

TLE

FreshSource: Space-Track

Epoch: Sep 14, 2026, 01:27 UTC

1 12227U 78026BU  26257.06074630  .00003230  00000-0  26964-3 0  9993
2 12227  98.7837 106.5644 0063249 274.2539  85.1454 14.97911259413205

Track DELTA 1 DEB in real time with AllMySat

Download on the App Store